Probability
4 2 1 0 0 0 1 3 3 4 6 8 8 6 4 3 3 3 4 6 9 7 3 3 2 3 3 2 1 0 0 0 0 0 1 1 1 2 2 1 1 1 1
5 4 2 1 0 0 0 1 2 4 7 9 9 8 6 5 4 4 4 6 8 6 5 3 2 1 1 1 0 0 0 0 1 1 1 2 1 1 1 1 1 1 2
7 6 4 3 2 1 1 1 2 4 6 8 9 9 8 8 7 6 6 6 6 6 5 4 2 0 0 0 0 0 0 1 2 2 1 1 1 0 1 2 1 1 2
8 7 6 6 5 3 2 2 3 4 5 6 7 9 9 9 9 9 7 6 5 5 4 4 3 1 0 0 0 0 0 1 2 2 1 1 2 2 2 3 2 2 1
8 6 6 6 6 4 3 4 4 5 4 4 5 7 8 8 8 8 7 5 4 4 4 3 3 2 1 0 0 0 0 0 1 1 1 2 2 2 3 4 5 4 3
8 6 5 5 5 3 4 5 6 6 5 4 4 4 5 5 6 6 5 3 2 3 4 3 2 2 1 0 0 0 0 0 0 0 0 1 2 2 3 5 6 6 5
10 8 7 6 5 4 5 6 7 6 6 4 3 2 2 2 3 3 3 1 1 3 5 4 3 3 2 0 0 0 0 0 0 0 1 1 2 2 3 4 5 5 5
13 11 10 9 7 6 7 9 8 7 6 4 2 1 0 1 2 2 1 1 1 3 5 5 4 3 2 1 1 1 1 1 1 1 2 3 2 2 2 2 3 4 4
14 13 12 12 10 10 12 13 11 9 6 4 1 1 1 1 2 1 1 0 1 2 4 4 4 4 3 3 3 2 2 2 2 2 3 4 3 3 3 3 3 3 2
14 13 14 15 16 15 16 16 14 12 8 5 3 2 1 1 1 1 0 0 0 1 2 4 4 4 5 5 5 4 2 1 1 1 2 3 4 3 3 3 3 1 1
16 16 17 19 20 20 19 19 17 14 9 6 5 5 3 1 0 0 0 0 0 1 3 6 6 4 4 5 6 4 1 0 0 0 1 2 4 3 3 3 2 1 0
19 18 19 21 22 21 21 20 18 14 9 7 8 7 5 4 2 1 2 1 1 1 4 6 6 4 2 3 4 3 1 0 0 0 0 1 2 2 2 2 1 0 0
20 20 20 21 21 19 19 18 17 14 11 9 9 7 7 6 5 4 3 3 2 1 2 3 3 3 2 1 1 1 0 0 0 0 0 0 1 1 1 1 0 0 0
21 22 21 20 18 16 15 15 14 14 13 12 9 7 7 6 5 6 5 4 3 1 0 0 1 2 2 2 1 0 0 0 0 0 0 0 0 0 0 1 0 0 0
23 23 22 19 16 13 13 13 12 13 13 12 10 7 6 4 4 5 5 4 3 2 1 1 1 1 3 3 1 0 0 0 0 0 0 0 0 0 0 0 0 0 0
23 23 22 18 14 12 12 11 11 11 12 11 9 7 6 5 4 4 3 3 2 1 1 1 0 1 2 2 1 1 0 0 0 0 0 0 0 0 0 0 0 0 0
22 22 18 15 12 11 11 11 10 10 10 10 8 7 7 6 6 5 3 2 1 1 1 1 1 1 2 2 2 2 1 0 0 0 0 0 0 0 0 0 0 0 0
19 18 15 12 10 10 11 11 10 9 9 9 8 7 7 7 7 6 4 2 1 0 0 1 1 1 2 2 2 2 1 0 1 0 0 0 0 0 0 0 0 0 0
16 15 15 13 11 10 10 10 9 9 9 10 9 7 6 7 7 6 4 2 1 1 1 1 1 1 2 2 1 1 0 0 0 0 0 0 0 0 0 0 0 0 0
16 16 16 14 12 11 10 9 9 9 9 10 9 7 6 6 6 5 4 3 3 3 3 2 1 1 2 2 1 0 0 0 0 0 0 0 0 0 0 0 0 0 0
17 17 16 14 12 10 8 8 9 7 6 7 6 6 6 5 4 2 2 2 3 3 3 2 2 1 1 1 1 0 0 0 0 0 0 0 0 0 0 0 0 0 0
18 17 15 13 11 8 5 5 5 6 6 5 5 4 3 3 2 1 0 1 1 1 1 1 1 0 0 0 1 0 0 0 0 0 0 0 0 0 0 0 0 0 0
18 16 13 12 10 6 3 1 2 4 7 7 5 4 3 2 1 2 2 1 1 1 0 0 0 0 0 0 0 0 0 0 0 0 0 0 0 1 1 1 0 0 0
17 15 13 12 11 7 2 0 0 2 5 5 4 4 5 3 2 2 3 2 2 1 0 0 0 0 0 0 0 0 0 0 0 0 0 0 0 1 1 1 0 0 0
15 14 13 13 12 8 3 0 0 0 1 2 2 2 3 3 2 1 2 2 1 1 0 0 0 0 0 0 0 0 0 0 0 0 0 0 0 1 1 1 2 1 0
12 12 13 13 12 8 4 1 0 0 0 0 0 0 1 1 1 0 1 2 1 0 0 0 0 0 0 0 0 0 0 0 0 0 0 0 0 1 1 2 3 2 1
Wind_Speed
1 2 1 1 2 2 2 2 1 2 1 1 1 2 2 2 4 5 5 10 10 9 9 8 8 7 6 5 5 5 5 5 5 4 5 7 6 6 6 5 5 5 5
1 1 1 1 1 1 1 1 1 2 1 1 1 1 1 2 3 5 6 7 9 9 9 8 7 6 6 5 5 4 5 5 5 5 5 6 6 6 6 5 5 5 6
2 1 1 2 1 1 2 2 2 2 2 2 2 1 1 1 2 4 5 5 6 8 10 9 7 6 5 5 5 5 5 6 6 6 6 6 6 6 6 5 5 5 6
2 1 1 2 2 2 2 2 1 2 1 2 2 1 1 1 2 2 3 4 5 5 8 9 8 7 6 6 5 6 6 5 5 6 6 6 6 6 5 5 5 5 6
2 2 1 1 2 1 2 2 2 1 2 2 2 2 1 2 2 2 2 3 4 5 5 8 9 9 8 7 7 6 6 6 6 6 5 5 5 5 5 5 5 5 5
2 2 1 2 2 1 1 1 1 1 1 1 1 2 1 2 2 2 3 3 3 5 5 6 6 6 9 8 8 8 8 7 7 7 6 6 6 5 5 5 5 5 5
2 2 2 2 2 2 2 2 1 2 1 1 1 1 1 2 3 3 3 3 3 4 4 5 5 4 5 9 8 8 9 8 8 8 7 6 6 5 5 6 5 5 5
3 3 2 2 2 2 2 2 1 1 2 2 1 1 2 2 2 4 3 4 4 3 4 5 4 4 4 4 7 10 9 8 8 8 7 6 6 6 6 5 5 5 5
3 2 3 2 2 2 2 3 2 2 1 2 2 1 1 1 1 2 3 3 3 3 3 3 5 5 4 3 4 8 9 8 8 8 7 6 6 6 6 6 5 5 5
3 3 3 3 2 2 2 3 3 2 2 2 2 2 1 1 0 1 1 2 3 3 2 3 3 4 4 3 4 7 9 8 8 8 8 7 6 6 7 7 7 6 6
3 3 3 3 3 2 2 2 2 3 2 2 2 2 2 2 2 1 2 2 2 2 3 3 2 2 3 4 4 6 10 9 8 8 8 7 7 7 7 7 7 7 7
2 3 3 3 3 3 2 2 2 3 3 2 2 1 2 2 2 2 2 2 2 2 3 2 3 2 3 3 5 8 10 10 9 9 8 8 8 8 8 8 8 8 7
2 2 3 3 3 3 3 3 3 3 4 3 3 2 2 1 1 1 1 1 1 1 1 2 2 2 3 3 3 7 9 10 10 10 9 8 8 9 9 9 9 8 7
1 2 2 2 3 3 4 3 3 4 3 3 4 3 2 1 1 1 1 1 1 1 2 2 2 3 3 3 4 7 5 10 10 10 10 10 9 9 9 9 9 8 7
2 3 2 3 2 3 3 4 3 4 3 4 4 3 3 2 2 2 2 2 2 2 2 2 2 3 3 3 5 5 4 7 9 10 10 10 10 9 9 9 9 8 8
1 2 3 3 3 3 3 3 3 4 3 3 3 3 3 2 2 2 2 2 2 2 2 2 2 2 2 2 5 4 4 7 9 10 10 10 11 10 10 9 10 9 9
2 2 2 2 3 3 3 3 3 4 4 4 4 4 4 3 2 2 2 2 2 2 2 2 1 1 2 2 2 3 3 4 5 9 10 10 10 11 10 10 10 10 10
2 2 2 2 3 3 3 4 4 4 4 4 4 4 4 3 3 2 1 1 1 2 2 2 1 1 2 3 4 4 4 4 4 8 10 11 11 11 11 11 10 10 9
2 2 3 3 3 2 3 3 3 3 3 3 4 4 4 4 4 3 3 3 2 2 2 2 2 2 2 3 3 3 4 3 5 5 9 10 11 10 10 11 11 10 9
2 2 2 2 2 2 2 2 2 2 3 3 3 4 4 4 4 3 4 3 3 2 2 2 2 2 2 2 2 3 3 3 4 4 5 7 8 10 10 11 11 10 10
1 1 1 1 2 1 1 1 1 2 2 3 3 3 3 4 4 3 3 3 3 2 2 2 3 2 2 2 3 3 3 3 3 3 3 4 4 4 6 9 10 11 11
0 0 1 1 1 1 1 1 1 2 2 3 2 2 3 4 4 5 4 4 4 4 3 3 3 3 3 2 2 3 2 2 2 2 2 3 4 4 5 5 10 13 12
1 1 1 1 1 1 2 2 1 2 3 2 2 3 4 3 4 4 4 5 5 7 7 5 4 4 3 2 2 3 2 2 3 2 2 4 3 4 4 4 9 11 12
2 2 1 2 1 1 3 2 2 2 3 3 3 3 3 3 3 3 4 4 4 4 6 6 5 5 4 3 3 3 4 4 4 3 3 3 3 3 3 2 8 12 12
2 2 2 2 2 1 2 3 3 2 2 3 3 3 3 3 4 4 4 4 4 4 5 6 7 6 6 6 4 2 3 3 4 3 3 3 3 2 2 3 5 10 11
2 3 2 2 2 1 2 3 4 3 2 2 2 2 3 3 3 3 3 3 4 4 3 3 5 6 7 7 8 6 5 4 4 3 3 3 2 2 2 2 3 4 6
Wind_Direction
123 132 150 143 182 158 161 163 173 140 108 79 129 135 139 128 129 127 138 147 147 150 154 156 153 152 156 160 167 165 168 165 161 164 168 170 173 173 178 178 182 187 190
120 131 147 137 150 133 125 135 144 128 139 141 108 108 136 134 136 137 142 149 151 154 154 156 157 157 156 162 167 166 169 168 164 163 165 172 177 183 184 185 189 191 191
135 152 157 154 157 152 138 157 158 141 171 164 143 138 137 144 144 140 147 148 152 160 161 164 163 162 163 168 168 170 170 166 167 169 170 176 181 180 183 186 199 206 196
152 164 166 151 161 170 144 149 155 162 154 143 141 153 147 148 147 142 148 152 152 161 170 173 169 168 168 173 177 173 172 176 181 179 181 182 179 176 177 188 204 212 210
163 165 168 149 159 167 146 164 144 152 148 143 152 157 159 160 174 172 169 159 152 157 163 174 179 181 180 182 184 182 182 185 187 189 190 187 181 177 181 191 198 205 213
160 151 172 160 160 157 139 133 134 148 138 150 192 158 170 178 174 170 184 173 172 176 177 173 177 191 193 194 195 194 191 191 191 191 191 188 185 186 194 199 201 205 213
164 171 187 161 166 159 151 154 148 169 169 144 139 161 203 204 184 181 179 175 181 184 188 172 178 183 188 201 199 197 198 196 192 193 193 191 192 197 205 207 206 209 211
175 184 175 169 162 158 160 167 169 190 188 160 165 194 189 193 207 203 180 185 193 186 188 184 182 182 184 177 194 197 198 195 197 195 199 201 202 205 212 211 210 214 216
179 176 169 177 167 174 171 176 183 199 205 183 186 196 184 188 162 178 192 188 179 179 193 185 183 179 184 169 169 191 191 192 195 199 202 205 206 209 214 216 216 219 222
172 171 176 178 180 180 173 186 180 188 200 213 197 205 180 103 134 153 181 183 181 185 191 206 187 173 174 168 166 172 183 189 196 204 207 209 213 219 220 224 224 224 224
178 180 177 174 179 184 184 181 165 189 200 214 215 189 196 197 206 191 188 186 193 190 185 189 190 177 177 174 172 172 174 179 190 201 207 211 216 220 224 226 227 228 228
173 179 180 173 179 184 185 182 186 195 207 220 233 217 200 195 196 201 204 197 187 192 183 176 180 183 185 175 187 178 177 184 189 197 204 212 218 221 224 227 230 234 233
173 176 182 179 191 191 187 191 191 207 206 206 213 225 234 213 173 194 204 216 190 195 174 185 181 181 189 167 172 179 183 186 191 196 202 209 214 220 225 228 231 233 236
183 166 175 184 196 199 199 194 199 206 206 208 218 214 219 215 194 193 212 209 207 227 198 201 181 179 183 169 173 178 188 192 195 197 202 207 213 220 226 228 230 232 235
185 165 188 194 199 210 208 194 209 211 198 203 212 208 211 209 217 208 216 209 212 227 234 204 186 191 179 167 170 187 186 191 197 200 204 208 213 221 226 229 230 231 233
191 182 188 189 195 206 209 207 214 208 204 211 205 204 202 208 220 217 215 224 216 210 238 210 203 183 177 188 188 194 191 192 201 202 205 210 214 218 223 229 230 229 228
195 199 194 194 201 208 205 211 221 209 205 212 209 202 204 208 219 227 215 216 213 205 224 232 188 171 175 184 195 204 200 196 201 206 206 210 215 217 220 225 228 228 227
206 206 201 210 215 215 213 214 216 213 210 209 211 206 211 217 213 224 237 234 218 208 207 224 207 204 217 197 200 210 218 220 208 205 207 211 215 219 221 222 225 227 227
209 204 195 205 214 209 212 214 211 206 216 216 213 210 210 214 216 209 215 227 229 223 201 208 224 211 216 214 203 219 228 229 225 210 207 211 215 219 221 222 222 224 223
208 199 202 211 214 215 214 205 208 208 215 218 216 215 214 209 215 216 220 217 220 219 218 220 227 216 213 211 197 213 232 230 228 223 208 204 210 217 223 222 222 221 220
212 188 211 234 224 208 214 218 248 224 223 229 224 224 219 209 212 215 227 215 214 216 220 220 227 224 219 203 218 226 229 234 233 219 203 206 200 212 220 224 223 221 219
29 18 249 257 269 249 118 128 276 254 235 231 227 232 231 210 202 200 219 226 221 221 224 229 237 233 226 218 226 238 232 240 249 224 214 235 208 212 214 211 212 211 212
205 237 258 242 187 100 143 162 232 266 260 245 232 232 248 233 194 199 214 224 228 228 223 225 233 243 246 239 235 249 254 248 251 233 225 248 228 224 218 222 200 201 204
208 223 232 241 219 183 167 178 217 244 261 257 246 238 240 236 233 217 215 222 225 222 220 220 223 236 242 242 234 237 245 251 250 240 226 243 237 226 224 212 198 201 202
222 223 228 223 226 189 198 192 206 243 246 245 244 250 247 230 227 217 222 225 230 236 232 226 219 227 235 240 240 252 247 248 257 247 226 231 240 229 216 214 204 206 206
223 224 224 223 227 210 210 206 205 237 253 254 243 237 249 237 214 205 229 230 234 241 245 244 236 237 232 233 229 225 233 238 247 253 228 222 242 236 249 222 194 195 213